Temp
26 25 25 25 25 25 25 25 26 26 26 26 27 27 27 27 27 27 27 27 27 27 27 27 27 27 27 27 27 26 26 26 25 25 25 25 25 25 25 25 25 25 25 25 25 25 26 26 26 26 26 26 26 26 26 26 26 26 26 26 26 26 26 26 25 24 26 27 27 27 28 27 27 27 27 27 27 27 27 27 27 27 27 27 27
26 26 25 25 25 25 25 25 25 26 26 26 26 27 27 27 27 27 27 27 27 27 27 27 27 27 27 27 27 26 26 26 26 25 25 25 25 25 25 25 25 25 26 26 26 26 26 26 26 26 26 26 26 26 26 26 26 26 26 26 26 26 26 26 26 25 25 26 26 27 27 27 26 27 27 26 27 27 27 27 27 27 27 27 26
26 26 26 25 25 25 25 25 25 26 26 26 26 26 27 27 27 27 27 27 27 27 28 28 27 27 27 27 27 27 26 26 26 26 26 25 25 25 25 25 25 26 26 26 26 26 26 26 26 26 26 26 26 26 26 26 26 26 27 27 26 26 26 26 26 25 25 26 26 26 26 26 26 26 26 26 26 26 26 27 27 27 27 26 26
26 26 26 26 26 25 25 25 25 25 26 26 26 26 26 27 27 27 27 27 27 27 28 28 28 27 27 27 27 27 26 26 26 26 26 26 25 25 25 25 25 26 26 26 26 26 26 26 26 26 26 26 26 26 26 26 26 26 26 27 26 27 27 26 26 26 26 26 26 26 26 26 26 26 26 26 26 26 26 26 26 26 26 26 26
27 27 26 26 26 26 26 25 25 26 26 26 26 26 26 26 27 27 27 27 27 27 27 28 28 27 27 27 27 27 27 27 26 26 26 26 26 26 25 25 26 26 26 26 26 26 26 26 27 26 26 26 26 26 26 26 26 26 26 27 27 27 27 27 26 26 26 26 26 26 26 26 26 26 26 26 26 26 26 26 26 26 26 26 26
27 27 27 26 26 26 26 26 26 26 26 26 26 26 26 26 27 27 27 27 27 27 27 28 28 27 27 27 27 27 27 27 27 26 26 26 26 26 26 26 26 26 26 26 26 26 26 26 26 26 26 26 26 26 26 26 26 27 26 26 27 27 27 27 27 27 26 26 26 26 26 26 26 26 26 26 26 26 26 26 26 26 26 26 26
27 27 27 27 26 26 26 26 26 26 26 26 26 26 27 27 27 27 27 27 27 27 27 27 28 28 27 27 27 27 27 27 27 27 26 26 26 26 26 26 26 26 26 26 26 26 26 26 26 26 26 26 26 26 26 27 27 27 27 27 27 27 27 27 27 27 27 26 26 26 26 26 26 26 26 26 26 26 26 26 26 26 26 26 26
27 28 28 27 27 27 26 26 26 26 26 26 26 27 27 27 27 27 27 27 27 28 28 28 28 28 28 27 27 27 27 27 27 27 27 26 26 26 26 26 26 26 26 26 26 26 26 26 26 26 26 26 26 26 26 26 27 27 27 27 27 27 27 27 27 27 26 26 26 26 26 26 26 26 26 26 26 26 26 26 26 26 26 26 26
27 28 28 28 27 27 27 26 26 26 26 26 27 27 27 27 27 27 27 27 27 28 28 28 28 27 27 27 27 27 27 27 27 27 27 27 26 26 26 26 26 26 26 26 26 26 26 26 26 26 26 26 26 26 26 26 27 27 27 27 27 27 27 27 27 26 26 26 26 26 25 25 25 25 25 26 26 26 27 26 26 25 25 25 25
28 28 28 28 27 27 27 27 26 26 26 26 27 27 27 27 28 28 28 27 28 28 28 28 28 27 27 27 27 27 27 27 27 27 27 27 27 26 26 26 26 26 26 26 26 26 26 26 26 26 26 26 26 27 27 27 27 27 27 27 27 27 27 27 27 26 26 26 26 25 25 25 25 25 25 26 26 26 26 26 25 25 25 25 25
28 28 28 28 28 27 27 27 27 27 26 27 27 27 27 28 28 28 28 28 28 28 28 28 28 28 27 27 27 27 27 27 27 27 27 27 27 27 26 26 26 26 26 26 26 26 26 26 26 26 26 27 27 27 27 27 27 27 27 27 27 27 27 27 27 26 26 26 25 25 25 25 25 25 25 26 26 26 26 25 25 25 25 24 24
29 28 28 28 28 28 27 27 27 27 27 27 27 27 27 28 28 28 28 28 28 28 28 28 28 28 27 27 27 27 27 27 27 27 27 27 27 27 26 26 26 26 26 26 26 26 26 26 26 26 27 27 27 27 27 28 28 28 28 28 28 27 27 27 27 27 26 26 26 25 25 25 25 25 25 25 25 26 25 25 25 25 24 24 24
28 28 29 29 28 28 28 27 27 27 27 27 27 27 27 28 28 28 28 28 28 28 28 28 28 28 28 27 27 27 27 27 27 27 27 27 27 27 27 26 26 26 26 26 26 27 27 27 27 27 27 27 27 28 28 28 28 28 28 28 28 27 27 27 27 27 27 26 26 26 26 25 25 25 26 25 25 25 25 25 25 24 24 24 24
25 26 27 28 29 28 28 28 27 27 27 27 27 27 27 28 28 28 28 28 28 28 28 28 28 28 28 28 27 27 27 27 27 27 27 27 27 27 26 26 26 27 27 27 27 27 27 27 27 27 27 27 27 28 28 28 28 28 28 28 28 28 28 27 27 27 27 27 26 26 26 26 26 26 26 26 25 25 25 25 25 24 24 24 24
26 25 24 26 28 29 28 28 28 27 27 27 27 27 27 28 28 28 28 28 28 28 28 28 29 28 28 28 28 27 27 27 27 27 27 27 27 27 26 26 26 27 27 27 27 27 27 27 27 27 27 27 28 28 28 28 28 29 29 28 28 28 28 28 28 27 27 27 26 26 26 26 26 26 27 26 26 25 25 25 24 24 23 23 23
27 27 26 26 27 29 28 28 28 28 27 27 27 27 27 28 28 28 29 28 28 28 28 28 29 29 28 28 28 27 27 27 27 27 27 27 27 27 26 26 26 26 27 27 27 27 27 27 27 27 27 27 28 28 28 28 28 28 28 28 28 28 28 28 28 27 27 27 26 26 26 26 26 26 26 26 26 25 25 24 24 24 23 23 23
27 28 28 27 28 29 29 28 28 28 28 27 27 27 27 28 28 28 28 29 28 28 28 28 28 29 29 28 28 28 28 28 28 27 27 27 27 27 26 26 26 26 27 27 27 27 27 28 28 28 28 28 28 28 28 28 28 28 28 28 28 28 28 28 27 27 27 26 26 26 26 26 26 26 26 25 25 25 24 23 24 24 23 23 22
28 28 28 28 28 29 29 29 28 28 28 28 27 27 27 27 28 28 28 29 29 28 28 28 28 29 29 29 28 28 28 28 28 28 28 28 27 27 27 26 26 26 26 27 27 27 27 27 27 27 27 28 28 28 28 27 28 28 28 28 27 27 27 27 27 26 26 26 26 26 26 26 26 26 26 25 25 25 24 24 24 24 23 22 22
28 28 28 28 29 29 29 29 28 28 28 28 28 28 28 28 28 28 28 29 29 29 28 28 28 28 29 29 29 29 28 28 28 28 28 28 28 28 27 26 26 26 26 26 27 27 27 27 27 27 27 27 27 27 27 27 27 27 27 27 27 27 27 27 27 26 26 26 26 26 26 26 26 26 26 26 25 25 24 24 24 24 23 23 23
29 29 29 29 30 29 29 29 29 28 28 28 28 28 28 28 28 28 28 29 29 29 29 28 28 29 29 29 29 29 29 29 29 29 29 29 28 28 27 27 26 26 26 26 26 27 27 28 28 27 27 27 27 27 27 27 27 27 27 27 27 27 27 27 27 26 26 26 26 26 26 26 26 26 26 26 25 25 25 25 25 24 24 23 23
31 30 30 30 30 30 29 29 29 29 28 28 28 28 28 28 28 28 28 28 29 29 29 29 29 29 29 29 29 29 29 29 29 29 29 29 29 28 28 27 27 27 27 26 26 26 27 27 28 28 28 28 28 27 27 27 27 27 27 27 27 27 27 26 26 26 26 26 25 25 25 25 25 26 26 26 25 25 25 25 24 25 24 24 23
32 32 31 31 30 30 30 29 29 29 29 28 28 28 28 28 28 28 28 28 29 29 29 29 29 29 29 28 29 29 29 29 29 29 29 29 29 29 28 28 28 28 27 26 26 26 27 27 28 28 28 28 28 28 27 27 26 26 26 26 26 26 26 26 26 26 25 25 25 25 25 25 25 25 25 25 25 25 24 24 25 25 24 23 22
33 32 32 31 31 30 30 29 29 29 29 28 28 28 28 28 28 28 28 28 29 29 29 29 29 28 28 28 28 29 29 29 29 29 29 29 29 29 28 28 28 28 27 26 26 27 27 27 27 27 27 27 27 27 27 27 27 26 26 26 26 26 26 25 25 25 25 25 25 24 24 24 24 24 24 24 24 24 24 24 25 24 23 23 23
33 33 32 31 31 30 30 29 29 29 29 28 28 28 28 28 28 28 28 28 28 28 28 28 28 28 28 28 28 29 29 29 29 29 29 29 29 29 29 28 28 28 27 27 27 27 27 27 26 26 26 26 26 26 26 26 26 26 26 26 26 26 25 25 25 25 24 24 24 24 24 24 24 24 24 24 24 24 24 24 24 24 23 23 24
33 32 32 31 31 30 30 29 29 29 29 28 28 28 28 28 28 28 28 28 28 28 28 28 28 28 28 28 28 28 29 29 29 29 29 29 29 29 29 29 28 28 28 27 27 27 27 27 26 26 26 26 26 26 26 26 26 26 26 26 26 26 25 24 24 24 24 23 23 23 23 23 23 23 24 24 24 24 24 24 24 24 24 24 24
32 32 31 31 31 30 30 29 29 29 28 28 28 28 28 28 28 27 27 28 28 28 28 28 28 28 28 28 28 28 29 29 29 29 29 29 29 29 29 29 29 28 28 27 27 27 26 26 26 26 26 26 26 26 26 26 26 26 26 26 26 25 25 24 24 23 23 23 23 23 23 23 23 23 23 23 23 23 23 24 23 23 23 24 24
31 31 31 30 30 30 29 29 29 28 28 28 28 28 28 28 27 27 27 27 27 27 27 28 28 28 28 28 29 29 29 29 29 29 29 29 29 29 29 29 28 28 27 27 26 26 26 26 26 26 26 26 26 26 26 26 26 26 26 26 26 26 25 25 24 24 23 23 23 23 23 23 22 22 22 23 23 23 23 23 23 23 23 23 23
31 30 30 30 30 30 29 29 28 28 28 28 28 27 27 28 27 27 27 27 27 27 27 27 28 28 28 28 29 29 29 29 29 29 29 29 29 29 29 28 28 28 27 27 27 26 25 25 25 25 25 25 26 26 26 26 26 26 26 26 26 26 25 25 24 23 23 23 23 23 22 22 22 22 22 23 23 23 23 23 23 23 23 22 22
31 30 30 30 30 29 29 29 28 28 28 28 28 28 28 28 28 27 27 28 28 28 28 28 28 28 28 28 29 28 29 29 29 30 30 30 30 30 29 29 29 28 28 28 27 25 24 24 25 25 25 25 25 25 25 25 25 25 25 25 25 25 25 24 24 23 23 23 22 22 22 22 22 22 22 23 23 22 22 22 22 23 23 22 22
30 30 30 30 29 29 29 29 29 28 28 28 28 28 28 28 28 28 28 28 28 28 28 28 28 28 28 29 29 29 29 29 30 30 30 30 30 30 30 30 29 29 29 28 26 24 23 24 24 24 24 24 24 24 24 24 24 24 24 25 25 25 25 24 24 24 23 23 22 22 22 22 22 22 22 23 22 22 22 22 22 22 23 22 22
28 29 29 29 29 29 29 29 29 29 28 28 28 28 27 27 27 28 28 28 28 28 28 28 28 28 28 29 29 29 29 29 29 29 29 30 30 30 30 30 29 29 29 28 25 23 23 23 23 23 24 24 24 24 24 24 24 24 24 24 24 24 24 24 24 24 23 23 22 22 22 22 22 22 22 22 21 21 21 21 22 22 22 22 22
26 26 26 28 28 28 28 28 28 28 28 29 28 27 27 26 26 27 27 28 28 28 28 28 28 28 29 29 29 29 29 29 29 29 29 30 30 30 30 30 29 29 29 27 24 23 23 23 23 23 23 23 23 24 24 24 24 24 24 24 24 24 24 24 24 24 24 24 23 22 22 22 22 22 22 21 21 21 21 21 22 22 22 22 21
23 24 24 26 27 28 28 28 28 27 27 28 28 27 26 26 25 25 25 26 27 28 28 28 28 29 29 29 29 29 29 29 29 29 29 30 30 30 30 29 29 28 27 25 24 23 23 23 23 23 23 23 23 23 24 24 24 24 24 24 24 24 25 25 24 24 24 24 23 22 22 22 21 21 21 21 21 21 21 21 22 22 22 22 21
20 21 22 23 24 25 26 27 27 26 26 27 27 27 27 27 26 24 23 23 24 25 26 27 28 28 29 29 29 29 29 29 29 29 29 29 30 30 29 28 27 26 25 25 24 23 23 23 23 23 23 23 23 24 24 24 24 24 24 25 25 25 25 25 25 24 24 23 23 22 22 21 21 21 21 21 21 21 21 21 22 22 21 21 21
19 19 20 21 21 22 23 24 24 24 24 25 25 26 26 26 26 24 23 23 23 23 24 25 26 27 27 28 28 28 29 29 29 29 29 29 29 29 28 26 24 24 24 24 24 23 23 23 23 23 23 23 23 24 24 24 24 24 25 25 25 25 25 25 24 24 24 23 22 22 22 21 21 21 21 21 21 21 21 21 21 22 21 21 21
20 19 19 20 20 20 21 21 22 22 22 23 23 23 24 25 25 25 24 24 24 23 23 24 24 25 26 27 27 27 28 28 28 29 29 29 29 28 26 25 24 24 24 23 23 23 23 23 23 23 23 23 23 24 24 24 24 25 25 25 25 25 25 24 24 23 23 22 22 21 21 21 21 21 21 22 22 22 22 22 21 21 21 21 21
19 19 20 20 20 21 21 21 21 21 21 21 21 20 21 21 22 23 23 24 24 24 23 23 24 24 24 25 25 26 27 27 27 28 28 27 26 26 25 25 24 24 24 23 23 23 23 23 24 24 24 24 24 24 24 24 25 25 25 25 24 24 24 23 23 23 22 22 21 21 21 21 20 21 21 22 22 22 21 21 21 21 21 21 22
19 20 20 20 21 21 21 21 21 21 21 20 20 20 20 20 20 20 21 22 23 22 21 21 22 22 21 22 23 24 25 26 26 26 25 25 24 24 24 24 24 24 24 24 24 24 24 24 24 24 24 24 24 24 24 24 25 24 24 23 23 23 22 22 22 22 21 21 20 20 20 20 20 21 21 22 22 21 20 20 20 20 20 21 22
19 20 20 20 20 20 20 20 20 20 20 20 20 20 21 21 21 22 22 22 22 21 21 20 20 20 20 21 22 23 24 24 23 23 23 23 23 23 23 23 23 23 23 24 24 24 24 24 23 23 23 23 24 24 24 24 24 23 23 22 22 21 21 21 21 20 20 20 20 20 20 20 20 20 21 21 21 21 20 20 20 20 20 21 22
18 19 19 20 20 20 20 20 20 20 19 19 19 20 20 21 21 22 22 21 20 20 19 19 19 19 19 20 21 22 22 22 21 21 21 21 21 21 21 21 21 22 22 22 23 23 23 22 22 22 22 22 22 23 23 23 23 22 22 21 21 20 20 20 20 20 20 20 20 20 20 20 20 20 20 20 20 20 20 19 20 20 20 21 22
17 17 18 19 19 19 19 19 19 19 19 19 19 19 19 20 20 20 20 19 18 17 17 17 18 18 19 19 20 21 20 19 19 19 19 19 18 18 18 18 19 19 19 20 20 20 21 20 20 20 20 20 20 21 21 21 22 21 21 20 20 20 19 19 19 19 19 19 19 20 19 19 19 19 20 19 19 19 19 19 20 20 21 21 21
15 16 16 16 17 17 17 18 18 18 19 19 18 19 19 19 19 18 18 17 17 16 16 16 16 17 18 18 19 19 18 17 16 16 16 15 15 15 15 15 15 16 16 16 17 17 18 18 18 18 18 18 18 18 19 19 19 19 19 19 19 19 19 19 19 19 19 19 19 19 19 19 19 19 19 19 19 19 20 20 20 21 21 22 21
14 14 14 14 15 15 15 15 16 16 17 17 17 17 17 17 17 17 16 16 16 16 15 15 15 15 15 16 17 17 15 14 14 14 13 13 13 13 13 13 13 13 14 14 15 16 16 16 16 16 16 16 16 17 17 17 17 17 17 18 18 18 17 18 18 18 18 18 19 19 20 20 19 19 19 19 20 20 21 21 21 21 21 21 21
13 13 13 13 13 13 14 14 14 14 14 14 15 15 15 15 15 15 14 14 14 14 14 13 13 13 13 13 14 13 13 12 12 12 11 11 11 11 11 11 12 12 12 13 13 14 14 14 14 14 14 14 15 15 16 16 16 16 16 16 16 16 16 17 17 17 17 18 18 19 19 19 19 19 19 19 19 20 20 21 20 20 20 20 20
12 12 12 12 12 12 12 12 12 13 13 13 13 13 13 13 13 13 13 12 12 12 12 11 11 11 11 11 11 10 10 10 10 10 10 9 9 9 10 10 11 11 11 12 12 13 13 13 13 13 14 14 14 15 15 15 16 16 16 16 16 16 16 16 16 17 17 17 18 18 18 18 18 18 18 18 19 19 19 19 19 19 19 19 19
11 11 11 11 11 11 11 11 11 11 11 11 11 11 11 12 12 12 12 11 11 10 10 10 9 9 9 9 9 9 9 8 8 9 9 9 8 8 9 9 10 10 10 11 11 12 12 12 12 12 12 12 13 13 14 14 14 14 15 15 15 15 15 16 16 16 17 17 17 17 17 17 17 18 18 18 18 18 18 18 18 18 18 18 18
10 10 10 10 10 10 10 10 10 10 10 10 10 10 10 10 10 10 10 10 10 9 9 9 8 8 8 8 8 7 7 7 7 7 8 8 8 8 8 9 9 9 9 9 10 10 10 10 10 10 10 11 11 12 12 12 13 13 13 14 14 14 15 15 16 16 16 17 17 17 17 17 17 17 18 18 18 18 18 17 17 17 17 17 17
9 9 9 9 9 9 9 9 9 9 9 9 9 9 9 9 9 9 9 9 9 9 8 8 8 8 8 7 7 7 7 6 6 6 6 7 7 7 7 8 8 8 8 8 8 9 9 9 9 9 10 10 10 11 11 11 12 12 12 13 13 13 14 15 15 15 15 16 16 16 17 17 17 16 17 17 17 17 16 16 16 16 16 16 16
8 8 8 8 8 8 8 8 8 8 8 8 8 8 8 8 8 7 7 7 7 7 7 7 7 7 7 7 7 7 6 6 6 6 6 6 6 6 6 7 7 7 7 7 7 7 8 8 8 9 9 9 9 10 10 10 11 11 11 12 12 12 13 14 14 14 14 15 15 15 15 15 15 15 15 15 15 15 15 15 15 15 15 14 14
7 7 7 7 7 7 7 7 7 7 7 7 7 7 7 7 7 6 6 6 6 6 6 6 6 6 6 6 6 6 6 6 5 5 5 5 5 5 6 7 7 7 7 7 7 7 8 8 8 8 8 9 9 9 9 10 10 10 10 11 11 12 12 13 13 13 13 14 14 14 14 14 14 14 14 14 14 14 14 14 14 14 14 13 13
6 6 6 6 6 6 6 6 6 6 6 6 6 6 6 6 6 5 5 5 5 5 5 5 5 6 6 6 6 5 5 5 5 5 5 5 5 5 5 6 6 7 7 7 7 7 7 8 8 8 8 8 8 9 9 9 9 10 10 10 11 11 12 12 12 12 13 13 13 13 13 13 13 13 13 13 13 13 12 12 12 12 12 12 12
Height
782 786 790 793 797 798 800 802 804 807 809 811 813 814 816 818 819 822 824 826 827 829 831 832 834 835 836 838 839 840 841 843 844 845 846 847 848 849 850 851 852 853 854 854 855 856 856 856 857 857 858 859 859 859 860 860 860 860 861 861 861 861 861 862 862 860 858 858 858 857 857 858 857 857 857 856 856 855 854 853 852 850 849 848 847
776 779 783 788 791 794 797 799 801 803 805 807 809 811 813 814 816 818 820 822 824 826 827 829 830 832 834 835 836 837 839 840 841 843 843 844 845 847 848 849 850 851 851 852 853 853 854 854 855 856 856 857 857 858 858 858 859 859 859 859 859 859 860 860 860 859 857 856 857 856 856 856 856 855 855 855 854 853 852 851 850 849 847 846 845
772 774 778 782 786 790 793 795 798 800 801 803 805 807 808 810 813 815 816 818 820 822 824 825 827 828 830 832 833 835 836 837 839 840 840 841 842 843 845 846 847 848 849 849 850 851 852 852 853 853 854 855 855 856 856 857 857 857 857 858 858 857 858 858 857 857 856 854 855 855 854 854 854 854 854 853 852 852 850 849 848 847 846 844 843
769 771 773 776 780 786 789 792 794 796 797 799 800 803 805 807 809 811 813 815 817 819 821 822 823 825 826 828 830 832 833 834 836 837 837 838 839 840 841 843 844 845 846 847 848 849 849 850 850 851 852 853 853 854 854 855 855 855 856 856 856 856 856 856 856 855 855 853 853 853 853 852 852 852 852 851 850 850 849 847 846 845 844 843 842
765 767 768 771 776 780 784 787 790 791 793 795 797 799 802 804 806 808 810 812 813 815 817 819 820 821 823 824 826 828 829 831 832 833 834 835 836 837 839 840 841 842 843 845 846 847 847 847 848 849 850 850 851 851 852 852 853 853 854 854 854 854 854 854 854 854 853 852 851 851 851 851 850 850 850 849 848 847 846 845 844 843 841 840 839
760 763 765 767 770 774 778 782 785 787 789 791 793 796 798 800 802 804 806 808 810 812 813 815 817 818 819 821 822 824 825 827 828 829 831 832 833 835 836 837 839 840 841 842 843 844 845 845 846 847 848 848 848 849 849 850 851 851 851 852 852 852 852 852 853 852 852 851 850 849 849 849 848 847 848 848 847 845 844 842 841 841 839 838 837
755 758 761 762 765 768 772 776 779 782 785 787 790 792 794 796 798 800 802 804 806 808 810 811 813 815 816 818 819 821 822 824 825 826 828 829 830 832 833 835 836 837 839 840 841 842 843 843 844 844 845 845 846 846 847 848 848 849 849 849 850 850 850 850 851 851 850 849 849 848 847 846 846 845 845 846 845 844 842 840 838 838 837 836 835
751 754 757 758 760 763 766 771 775 778 781 783 786 788 790 793 794 796 799 800 802 804 806 808 810 811 813 815 816 818 819 820 822 823 825 826 827 829 830 832 833 834 836 837 838 839 840 841 842 842 843 843 843 844 844 845 846 846 847 847 848 848 848 848 848 848 848 848 847 846 845 844 844 843 843 844 843 842 840 839 836 835 835 835 834
748 750 753 754 755 758 763 767 771 775 778 780 782 784 786 789 791 793 795 796 798 800 802 804 806 807 809 811 813 815 816 817 818 820 821 823 824 826 827 829 830 831 833 834 836 837 837 838 839 839 840 840 841 841 842 843 843 844 844 845 845 846 846 846 846 846 846 846 844 844 843 842 841 841 841 841 841 840 838 837 835 834 834 833 832
745 747 748 749 752 755 760 764 768 771 774 775 777 780 782 785 787 788 790 792 794 797 798 800 801 803 805 807 809 811 812 814 815 816 818 819 821 823 824 826 827 828 830 831 833 834 835 836 836 836 837 837 838 839 839 840 840 841 841 842 843 843 843 843 843 844 844 843 842 842 841 839 838 839 839 839 839 838 837 836 834 833 833 831 830
744 745 746 747 751 754 757 760 764 767 769 771 773 775 777 780 782 784 786 788 790 793 795 796 797 799 801 803 805 807 809 810 812 814 815 817 818 820 821 823 824 826 827 828 829 830 831 832 833 834 834 835 835 835 836 837 837 837 838 839 840 840 840 840 840 841 841 840 840 840 839 837 836 836 837 837 836 836 835 834 833 832 832 830 828
745 745 746 748 750 751 753 757 760 763 765 767 769 772 774 776 778 780 781 783 786 789 791 792 793 795 798 799 801 803 805 806 808 810 812 814 816 818 819 820 821 823 824 825 826 827 828 829 830 831 831 831 832 832 833 833 834 834 835 836 836 837 837 837 837 837 838 838 837 837 836 835 834 834 834 834 834 833 833 832 832 831 831 830 828
750 748 747 748 748 749 751 754 757 759 761 764 766 769 771 773 773 775 776 779 782 784 786 788 790 792 794 795 797 799 801 803 805 807 809 810 813 814 816 818 819 820 821 821 823 824 824 826 827 827 828 829 829 830 830 830 831 831 832 832 833 834 834 834 834 834 835 835 834 833 833 833 832 831 831 832 831 831 830 830 830 830 829 829 827
753 754 751 748 746 747 750 751 753 756 758 761 764 766 768 769 769 771 773 775 777 779 781 784 786 788 790 792 794 795 797 799 801 804 805 807 809 811 813 814 816 817 817 818 819 820 821 823 823 824 825 826 826 827 827 827 828 828 828 829 829 830 830 831 831 831 832 832 831 830 830 830 829 828 828 829 828 828 828 827 828 828 827 826 825
745 752 754 752 748 745 746 748 750 753 756 758 760 762 763 765 766 768 770 771 773 774 777 780 782 784 786 788 790 792 794 796 798 801 803 804 806 808 810 812 813 814 815 815 816 817 818 819 820 821 822 823 823 824 824 825 825 825 825 825 825 825 826 826 827 828 828 829 828 827 827 827 827 826 826 826 826 826 826 826 826 826 825 824 823
735 738 740 744 744 741 741 743 746 749 752 755 756 757 759 761 763 765 767 768 770 772 774 776 778 781 783 784 786 788 790 792 794 797 799 801 803 805 807 809 811 811 812 812 813 814 815 816 817 817 818 819 820 821 822 822 822 822 822 822 822 822 822 822 824 825 825 825 825 824 824 824 824 824 824 824 824 824 824 824 824 824 823 822 821
728 728 727 730 734 734 735 737 741 744 748 749 750 752 754 757 759 762 764 766 767 768 770 772 775 777 779 781 782 784 786 788 790 793 795 797 799 802 804 806 807 808 808 809 810 811 812 812 813 813 814 814 815 817 819 820 820 820 819 819 819 819 818 819 821 822 822 822 822 821 821 822 822 821 821 822 821 822 822 822 822 821 821 821 819
720 721 721 723 726 728 729 731 735 739 741 743 745 747 750 753 755 758 760 762 763 765 767 769 772 774 775 777 779 781 783 784 787 789 791 793 796 798 800 802 803 804 804 805 807 808 809 809 809 810 810 810 811 813 815 816 817 817 817 817 817 816 815 816 817 818 819 819 819 818 818 818 819 818 818 819 819 820 820 820 820 820 820 819 818
712 713 716 720 723 724 725 726 729 733 735 738 740 743 746 749 752 754 757 758 760 762 764 766 768 770 772 774 776 778 780 781 783 785 787 789 791 793 796 797 799 800 800 802 803 804 805 805 806 806 806 807 808 809 811 812 813 813 814 814 814 812 812 813 815 815 816 816 815 815 815 815 815 815 816 816 816 817 817 817 818 818 818 817 817
708 710 714 718 720 721 721 722 724 727 730 733 736 740 742 745 748 751 753 755 757 759 761 762 764 766 768 770 772 774 776 778 780 781 783 785 787 789 791 793 794 795 796 797 798 799 800 801 801 802 803 803 804 805 807 808 809 809 810 810 810 809 810 811 812 812 813 813 813 813 812 812 813 812 813 813 814 814 815 816 816 816 816 815 816
705 708 711 713 715 716 716 718 719 722 725 729 733 736 738 741 744 746 749 752 754 756 757 758 760 762 764 766 768 770 772 774 776 778 780 781 783 785 786 788 789 791 792 793 794 794 795 795 796 798 799 799 800 802 803 804 805 806 806 806 806 806 808 809 809 810 810 810 810 810 810 810 810 810 811 811 812 812 813 814 815 815 814 814 814
702 703 705 707 709 711 712 714 715 719 722 725 729 732 735 737 740 742 745 748 750 752 753 754 756 758 760 762 764 766 768 770 772 774 776 777 779 781 782 783 785 787 787 788 789 789 790 790 791 792 794 795 797 798 800 801 802 802 802 803 804 805 805 806 806 807 807 807 807 808 808 808 809 809 809 810 811 812 812 813 813 813 813 813 814
696 697 699 701 703 706 708 710 712 715 718 720 724 728 731 734 737 739 741 744 746 748 749 751 752 754 756 758 760 762 764 765 767 769 772 774 775 777 778 779 781 782 783 784 784 784 785 786 787 788 790 791 793 794 796 797 798 798 799 800 801 802 802 803 804 804 804 805 805 805 806 807 808 808 809 810 811 811 811 811 812 812 812 813 813
691 691 692 694 697 700 703 705 708 710 713 716 720 724 727 731 733 735 737 739 742 743 745 747 748 749 751 753 755 757 759 761 763 764 767 769 770 772 774 775 777 778 778 779 779 780 781 783 784 785 787 788 789 791 792 793 794 794 795 796 797 798 799 800 801 801 802 802 803 803 804 805 807 807 809 810 811 811 811 811 811 811 811 812 812
684 685 687 688 691 695 698 700 703 706 709 712 716 719 723 726 729 731 733 735 737 739 741 743 744 745 747 748 750 752 754 756 758 759 761 763 765 767 769 770 771 773 774 774 776 777 778 780 781 782 784 785 787 788 788 789 789 790 791 793 794 794 795 797 798 799 799 800 800 801 802 803 805 806 807 809 809 810 809 810 810 810 810 810 810
677 679 681 683 686 690 693 696 699 703 706 709 712 715 719 722 725 727 729 731 733 734 736 738 740 741 742 743 745 747 749 751 752 754 756 758 760 762 763 765 767 768 770 771 773 774 776 777 778 780 781 783 784 784 785 785 786 787 788 789 790 791 792 794 795 796 797 797 798 799 799 801 802 804 805 806 807 807 807 808 808 807 807 807 807
672 674 676 679 682 685 689 692 696 700 703 706 709 713 716 719 721 723 725 726 728 730 732 734 735 736 738 739 741 742 744 746 747 749 751 753 754 756 758 760 763 765 767 768 770 771 773 774 776 777 779 780 781 781 781 782 783 783 784 785 787 788 789 790 791 793 794 794 795 796 797 799 800 801 802 803 804 804 804 805 804 804 804 804 804
667 670 672 675 678 681 685 688 692 696 700 703 707 709 712 715 716 717 718 720 722 724 726 727 729 731 732 735 737 739 740 741 741 743 744 746 748 751 753 756 758 761 762 764 766 768 770 772 774 775 776 777 777 778 778 779 780 780 782 783 784 785 786 787 789 790 791 792 793 794 795 796 797 798 799 800 800 800 801 801 802 802 802 802 803
663 666 669 672 675 678 682 686 689 693 697 700 703 706 708 711 712 713 715 716 718 719 720 721 723 725 728 730 732 734 734 734 735 737 739 741 744 746 748 751 754 756 758 760 762 765 768 769 771 772 772 773 774 775 776 776 777 778 779 780 781 782 783 784 785 786 788 789 790 790 791 792 793 794 794 794 794 795 796 797 798 799 800 801 802
661 663 665 668 671 674 678 682 686 690 693 696 700 702 705 707 708 710 711 713 714 716 717 718 720 722 724 726 727 727 728 729 732 734 736 738 741 743 745 747 750 752 754 756 759 762 764 766 767 768 769 770 771 772 773 774 774 775 776 777 779 780 781 782 782 783 784 785 786 787 787 788 788 788 788 788 789 792 794 795 796 797 798 799 801
662 662 663 665 668 671 675 679 682 686 689 692 696 699 701 703 705 706 707 709 711 714 716 718 720 721 722 723 724 726 727 729 732 733 735 737 738 740 742 744 746 749 751 753 756 759 761 762 763 764 766 767 768 769 770 771 772 773 774 775 776 777 778 778 778 780 781 781 782 782 783 783 784 784 785 787 790 792 794 795 796 796 796 797 798
663 662 663 663 664 667 671 675 679 683 686 689 692 695 697 699 701 703 704 706 709 712 715 718 719 721 722 723 724 726 727 729 731 732 733 735 736 737 739 741 743 746 748 750 752 754 756 758 759 760 762 763 764 765 767 768 770 771 772 773 773 773 774 774 774 776 777 777 778 780 781 782 783 784 786 788 790 792 793 794 795 796 795 795 794
665 663 661 661 661 663 665 669 674 679 683 686 688 690 693 696 698 700 703 706 708 711 714 717 718 720 722 723 724 725 726 727 729 730 731 732 734 735 737 738 740 742 744 746 749 750 752 754 755 757 758 759 760 762 764 766 767 768 769 770 769 769 769 770 771 773 774 775 777 778 780 781 782 784 786 787 787 788 788 789 791 793 794 794 793
669 667 663 661 661 662 664 665 668 672 677 682 684 686 688 693 696 700 703 705 708 710 713 716 718 720 721 722 723 724 725 726 727 728 729 731 732 733 734 736 738 740 742 743 745 747 749 750 752 754 755 757 758 760 762 763 764 765 766 766 766 766 766 767 769 770 771 772 774 776 778 780 781 782 784 784 784 784 785 785 787 789 792 795 794
671 671 669 666 666 667 668 669 670 672 675 678 682 686 689 691 694 698 701 704 708 711 713 715 718 719 720 721 721 722 723 724 725 726 728 729 730 731 732 734 735 737 739 741 742 744 746 748 750 752 753 755 757 758 759 760 761 762 762 762 763 763 764 765 767 768 769 770 772 774 775 778 779 781 782 783 784 785 785 786 787 789 792 794 794
671 672 675 675 676 675 674 674 676 678 679 681 682 687 692 695 694 695 699 703 708 711 713 714 716 718 718 719 720 720 721 722 723 724 726 727 728 729 730 731 733 734 736 738 740 742 744 746 748 750 751 753 754 755 756 757 758 758 759 760 760 762 763 763 765 767 768 769 771 773 775 777 779 781 782 783 784 785 785 785 786 788 791 794 793
673 673 675 678 679 678 677 678 679 680 681 684 685 688 697 702 699 698 702 706 707 710 712 712 713 715 716 717 718 719 720 721 722 723 724 726 727 728 729 730 731 732 733 735 737 740 742 744 746 747 748 750 751 752 753 754 755 756 757 758 759 760 761 762 764 765 766 768 770 772 774 776 778 780 781 781 782 783 783 783 783 784 788 791 792
676 674 674 675 676 677 678 680 681 679 679 683 685 688 696 703 703 704 709 710 708 709 713 714 714 714 715 716 718 719 719 720 721 722 724 725 727 729 730 730 731 732 733 734 736 738 740 742 743 745 746 747 749 750 751 752 752 753 754 756 757 758 759 761 763 764 765 767 769 771 772 774 776 778 779 780 781 781 781 782 782 781 783 785 787
678 677 675 674 674 676 678 679 681 682 681 683 685 688 693 700 703 705 710 710 706 707 711 715 716 717 716 717 718 718 719 720 722 723 725 726 727 729 730 730 731 732 732 734 735 737 739 741 742 743 744 745 746 747 748 749 749 750 751 752 754 755 756 759 761 762 764 767 769 770 771 773 775 777 778 780 779 778 778 780 781 781 780 781 783
681 680 678 675 675 678 678 679 682 684 683 684 686 690 695 701 701 701 706 709 709 708 710 713 716 718 718 718 718 718 719 721 723 724 726 727 728 729 729 729 730 731 731 732 734 735 737 740 741 742 743 744 744 745 746 747 747 748 749 751 752 754 755 757 760 762 764 766 767 768 770 772 774 776 777 778 778 778 778 779 780 780 780 780 782
684 683 681 679 679 679 679 679 682 684 685 685 686 689 697 705 706 704 706 711 712 711 713 715 716 718 719 719 718 718 719 721 724 725 727 727 728 729 729 729 730 730 731 731 732 733 735 738 740 741 742 743 744 745 746 746 747 748 749 750 752 754 755 757 759 762 764 766 767 768 770 772 773 774 775 776 778 779 779 781 782 781 780 780 782
690 688 687 685 684 683 682 682 682 683 685 688 688 688 696 708 712 709 709 711 712 712 714 717 718 720 721 721 719 718 719 722 725 726 728 729 729 730 730 731 731 731 732 732 733 734 735 737 740 741 742 743 744 744 745 746 748 748 749 751 752 754 755 757 759 761 763 765 767 768 770 771 773 773 774 776 778 779 779 780 781 781 780 780 782
697 695 694 692 690 688 687 687 687 686 687 690 691 693 700 708 711 708 707 709 711 712 715 718 721 723 724 723 721 720 722 724 727 728 729 730 731 731 731 732 732 733 733 734 735 736 737 738 739 741 743 744 745 745 745 746 748 750 751 752 752 754 756 758 760 762 764 765 767 768 769 770 772 773 774 775 777 778 779 779 779 779 779 779 780
702 700 699 698 695 693 693 693 695 696 695 694 695 699 702 705 705 703 705 708 711 713 716 720 723 725 726 727 726 725 727 728 729 730 732 732 732 732 733 734 734 734 735 736 737 739 739 740 741 743 744 746 747 747 747 749 750 751 753 754 754 755 757 759 761 763 764 765 766 768 769 771 772 773 774 774 775 776 777 777 777 777 777 778 779
705 703 702 701 700 700 700 700 700 701 702 702 704 706 706 704 702 703 706 710 713 716 719 724 727 729 730 731 731 731 732 732 732 732 733 733 734 735 735 735 736 737 738 739 741 741 742 743 745 746 747 749 750 750 751 752 753 755 756 756 756 757 759 761 763 764 765 766 767 768 769 770 771 772 773 773 773 774 775 776 776 777 778 779 779
706 704 704 705 705 706 706 706 706 706 706 708 710 712 711 709 707 708 710 712 716 719 724 728 730 732 733 734 735 736 736 736 736 735 735 735 736 737 738 738 739 740 741 743 744 745 746 747 748 749 751 753 753 754 755 755 756 758 759 759 759 759 761 764 765 765 765 766 767 768 769 769 770 771 772 772 772 773 774 775 776 777 777 778 779
710 706 705 706 708 709 710 710 710 710 710 711 712 714 715 714 713 714 715 717 719 723 727 730 732 733 734 736 738 740 742 742 741 740 739 738 739 740 741 741 742 743 745 746 747 748 750 751 752 753 755 756 757 757 759 759 760 761 761 761 761 762 763 765 766 766 767 767 767 768 769 769 770 771 771 772 772 773 774 775 775 776 776 777 777
714 712 710 709 711 713 714 713 713 713 714 714 714 715 717 718 718 719 720 721 723 725 728 731 733 734 736 738 741 744 746 746 745 744 743 742 742 743 743 743 744 746 747 749 751 752 754 755 756 757 758 759 760 761 762 762 763 763 763 763 764 764 766 767 768 768 768 768 768 769 769 770 770 771 771 772 772 773 773 774 775 775 776 776 776
718 717 715 715 716 718 719 718 717 718 718 718 719 720 721 722 723 723 724 725 727 730 732 734 736 737 739 741 744 747 748 748 748 748 747 746 746 747 746 746 747 748 749 751 754 756 757 758 759 760 761 762 763 764 764 765 765 765 765 766 767 767 768 769 769 770 770 770 770 770 770 770 771 772 772 772 773 773 773 774 774 775 775 775 775
722 721 720 720 721 722 723 723 723 723 723 724 725 725 725 726 727 727 728 730 733 735 737 739 740 742 743 745 747 748 749 749 750 750 751 751 751 751 751 750 751 752 753 755 757 759 760 761 762 763 764 765 766 766 767 767 768 768 769 769 770 770 770 770 770 771 771 771 771 771 772 772 772 772 773 774 774 774 774 774 774 774 774 774 774
727 726 725 725 725 726 727 727 728 728 728 729 730 731 731 731 732 732 733 735 738 740 742 743 745 746 748 749 750 750 750 751 752 753 753 754 755 755 755 755 755 756 757 759 760 761 763 764 765 766 767 768 768 769 770 770 771 772 772 772 772 771 771 771 771 771 771 771 772 772 773 773 773 773 774 775 775 775 775 775 775 774 775 774 774
Wind_Speed
40 39 39 38 37 37 39 40 40 40 39 39 39 39 38 37 37 36 36 35 34 31 30 31 31 31 30 30 30 28 26 26 26 25 24 23 23 21 19 18 17 17 17 17 16 14 13 13 13 12 11 12 12 13 12 10 9 9 9 9 10 10 11 11 11 14 18 17 15 15 13 14 14 13 13 15 16 17 19 20 21 23 24 26 26
41 41 40 39 39 39 39 40 40 40 40 39 40 40 39 38 38 37 36 37 36 34 32 32 32 32 32 31 31 29 28 28 27 27 26 25 25 24 22 21 20 19 19 19 17 16 15 14 14 14 13 13 14 14 14 13 12 13 14 13 14 13 13 14 14 15 18 19 18 17 17 16 16 16 16 17 18 18 19 21 21 23 24 25 26
41 41 40 40 40 40 39 40 40 39 40 40 40 40 41 40 39 38 37 36 37 37 36 34 34 34 34 33 32 31 30 29 28 28 28 28 27 26 25 24 22 21 21 21 19 18 18 17 16 15 15 15 15 15 14 14 14 14 16 16 16 16 15 16 16 16 18 20 19 19 19 19 19 19 18 19 20 20 20 20 20 21 23 24 25
39 40 40 41 40 39 39 39 40 40 39 40 40 40 40 40 39 38 38 36 36 38 38 36 35 35 36 35 34 33 31 30 30 30 30 30 29 28 27 26 25 24 23 23 21 19 20 20 19 18 17 17 17 17 16 16 16 16 16 16 15 16 16 17 18 18 19 20 20 20 20 20 21 21 21 21 21 20 19 19 19 20 21 21 22
39 39 40 40 39 39 39 40 40 40 40 40 39 39 39 39 39 39 38 37 36 37 38 38 36 36 37 37 36 35 34 33 33 32 32 31 30 29 28 27 27 26 25 24 22 21 20 21 22 21 20 19 19 18 18 18 18 17 17 17 16 15 15 16 18 19 19 20 21 22 22 22 23 23 22 21 22 21 20 20 19 20 21 20 19
38 38 38 38 39 39 40 40 41 42 41 40 39 38 38 38 38 38 38 38 36 36 38 39 38 37 37 37 37 36 36 35 35 35 34 33 31 30 29 28 27 26 26 25 24 23 22 21 22 22 21 21 21 20 20 20 20 19 19 19 18 17 17 17 18 19 20 21 23 24 24 24 24 25 23 20 20 21 21 21 21 21 21 22 21
37 36 36 37 39 40 41 42 42 43 42 41 39 38 38 37 38 39 39 38 37 36 37 39 39 38 38 37 37 36 36 37 36 36 35 34 32 31 30 29 28 27 26 26 26 25 24 23 22 22 22 23 23 22 22 22 21 21 20 20 19 19 20 20 19 19 20 21 22 24 25 24 24 24 22 18 17 20 21 22 23 22 22 22 21
37 36 35 36 38 40 42 42 42 42 42 42 40 38 38 38 37 38 39 38 38 37 37 38 39 39 39 38 37 36 36 37 37 36 36 35 33 32 31 30 29 29 27 27 26 26 26 25 25 24 24 25 24 24 24 23 22 22 22 21 21 21 21 21 21 20 20 21 22 23 23 23 22 21 20 17 17 20 20 21 23 23 19 16 16
37 36 34 37 39 41 41 40 41 41 41 41 40 39 39 38 37 38 39 39 39 37 37 38 38 38 39 38 37 36 36 37 37 37 37 36 34 33 32 31 30 30 29 28 27 26 26 26 26 26 26 26 26 25 25 25 25 24 24 23 23 23 23 22 21 21 21 21 22 22 22 22 22 21 20 18 18 20 20 18 18 16 13 13 15
36 38 37 37 38 39 39 40 40 40 41 42 42 41 40 39 38 38 39 40 39 38 37 37 38 38 38 38 38 37 36 36 37 37 37 37 36 34 32 32 31 30 30 29 29 28 28 27 27 26 26 26 26 26 25 25 26 26 26 25 24 24 24 24 23 23 22 21 23 22 20 22 24 22 20 19 19 19 15 11 11 12 14 17 19
34 36 37 37 37 37 38 39 40 40 42 43 43 42 41 40 39 38 39 40 40 39 37 37 38 39 38 38 39 38 37 37 36 37 37 37 36 35 33 32 32 32 30 30 30 30 29 29 28 27 26 26 27 27 26 26 26 27 26 26 25 25 24 25 25 24 23 22 23 22 20 23 25 23 20 18 16 13 11 10 11 14 16 16 17
35 36 34 33 35 38 39 39 40 41 41 42 43 43 41 40 40 39 39 40 40 39 38 36 37 39 38 38 38 38 38 38 38 38 38 38 37 36 34 32 32 32 32 31 31 30 30 29 28 28 27 27 28 28 28 28 28 28 28 27 26 26 26 26 26 26 24 23 23 23 23 23 24 23 19 16 14 14 15 16 16 17 16 15 15
24 31 35 35 36 38 39 39 39 40 41 42 42 42 40 39 40 40 40 40 41 40 39 37 35 37 38 38 37 38 38 38 38 38 38 39 39 37 36 34 32 32 33 33 33 32 31 30 29 29 28 27 27 27 27 28 28 28 28 29 29 28 29 29 29 28 28 26 25 26 27 26 25 27 25 22 20 21 21 21 20 19 18 17 17
21 22 25 33 38 38 38 39 40 40 40 40 40 41 41 40 40 40 39 39 41 41 40 38 35 35 38 38 37 37 37 38 38 38 38 38 39 39 38 36 34 33 33 34 34 33 32 31 31 30 30 29 27 27 27 27 28 28 29 30 31 31 31 31 31 31 31 31 30 31 32 31 31 33 32 28 27 26 25 24 23 20 17 17 18
28 22 22 26 34 39 39 40 40 39 39 39 39 40 42 40 39 39 37 38 40 41 40 40 38 35 36 38 37 36 36 37 37 37 37 37 38 39 39 37 34 33 33 33 33 33 33 33 33 32 32 31 30 29 28 27 28 29 30 31 32 32 32 32 32 31 31 31 32 33 33 31 30 29 27 25 25 24 23 22 19 16 16 16 19
37 36 30 31 36 41 42 41 40 40 39 39 39 40 41 41 39 38 36 35 37 39 39 39 39 37 35 36 38 37 35 36 37 37 37 36 37 38 39 37 34 33 33 33 32 32 32 32 33 33 33 33 32 31 30 29 27 28 29 31 32 32 33 32 31 29 28 28 27 27 25 23 22 20 19 18 19 19 19 18 17 18 18 17 19
38 41 40 38 38 42 44 42 41 40 39 39 40 40 41 41 40 37 35 33 34 36 38 37 38 38 36 34 36 37 36 35 36 36 36 36 36 37 39 38 36 35 35 34 31 30 31 32 33 33 34 33 32 31 31 30 30 29 29 29 29 30 31 31 29 27 26 24 22 21 20 18 18 18 18 18 19 19 19 18 19 21 19 15 15
40 40 38 37 37 41 44 44 43 42 41 41 41 40 40 40 40 38 35 34 33 34 36 36 36 37 37 35 34 34 34 35 36 35 35 35 36 37 39 38 38 38 37 35 31 28 27 28 30 32 34 34 33 32 30 30 31 31 31 29 28 28 30 30 27 25 23 21 20 20 20 20 20 21 21 21 21 21 21 21 21 21 18 15 15
42 41 39 37 38 41 43 44 43 43 43 42 41 39 39 38 39 39 37 34 33 32 34 34 34 35 36 37 36 33 32 33 35 36 35 35 36 38 39 39 38 38 37 36 35 33 31 29 27 27 29 30 31 32 31 30 30 31 32 30 29 30 32 31 27 24 22 21 21 22 23 23 23 22 22 22 23 24 23 22 22 22 20 19 18
43 41 38 37 38 41 42 43 44 43 43 42 40 39 38 37 37 38 37 35 32 31 32 34 33 33 34 35 36 36 34 33 33 34 35 35 37 39 40 39 38 38 37 36 36 36 37 37 35 32 31 30 29 29 29 29 30 31 31 31 31 33 33 31 29 27 25 24 24 24 24 23 22 22 22 22 23 23 22 20 20 21 22 23 20
40 39 38 38 39 41 42 42 44 44 43 41 38 37 37 37 37 38 37 35 33 31 31 33 33 33 33 34 34 35 37 36 35 34 33 34 35 38 40 40 39 39 38 36 36 36 37 39 40 39 38 37 36 34 32 30 29 30 31 32 33 33 32 30 29 27 25 24 22 20 19 18 17 18 19 18 18 18 18 18 17 19 22 23 20
37 37 37 37 38 39 40 41 42 41 40 38 37 36 37 36 36 37 36 36 35 33 31 31 31 32 32 33 34 34 35 37 38 38 36 35 34 36 39 40 40 39 38 35 35 37 38 38 39 38 38 38 38 38 37 35 34 33 34 34 33 32 31 30 29 26 24 23 21 20 18 16 14 14 14 15 14 13 14 14 14 16 18 18 15
35 36 37 36 37 38 38 39 39 38 37 38 37 36 35 34 34 35 36 35 34 34 32 31 30 30 31 32 34 35 35 36 38 39 39 38 37 36 37 39 39 40 39 37 37 39 39 38 37 36 35 34 33 33 33 34 35 36 36 36 35 34 32 30 28 26 25 25 23 22 21 19 16 14 13 13 13 12 13 13 12 10 11 10 9
33 34 36 36 37 38 38 38 38 37 36 37 36 34 34 34 33 34 35 35 34 33 32 31 29 29 30 31 33 35 35 36 37 39 39 40 39 39 39 39 40 41 41 40 39 39 38 37 36 35 33 32 30 29 28 29 30 32 33 33 34 34 33 30 28 27 25 25 25 24 22 21 20 19 17 15 14 14 13 12 9 8 8 7 7
32 33 35 37 37 37 37 37 37 37 35 35 36 34 34 33 33 33 34 34 33 32 31 31 30 28 28 30 31 34 36 36 37 38 39 39 39 39 39 40 41 42 43 42 40 39 37 36 34 32 30 29 28 28 28 28 28 28 28 28 30 33 33 31 29 27 26 25 25 24 24 24 24 24 23 21 19 16 14 13 11 10 8 7 7
32 33 35 37 37 37 35 35 35 35 34 34 35 35 34 33 32 32 32 32 32 32 31 31 31 29 27 28 30 33 35 35 36 38 39 39 40 40 40 40 41 43 44 43 39 37 35 34 31 29 27 26 25 27 28 28 28 28 28 28 29 31 32 31 30 29 28 27 27 27 27 26 26 25 23 21 20 18 17 16 13 11 9 8 7
30 33 34 34 36 36 33 33 32 32 32 32 32 33 33 33 33 32 31 32 32 31 31 31 31 30 29 28 28 31 33 35 36 37 39 40 41 41 41 41 41 43 44 44 40 36 33 31 28 24 22 22 22 23 23 23 24 26 28 29 30 30 30 31 30 29 29 29 28 28 27 25 23 20 18 18 19 19 18 17 14 11 10 9 7
30 33 35 34 33 34 33 32 32 30 30 30 30 31 33 33 33 34 35 35 33 32 33 32 32 32 31 30 28 27 29 32 35 38 41 42 42 42 42 41 41 43 44 44 43 38 31 27 25 23 22 23 23 23 22 21 22 23 24 27 29 30 30 29 28 27 27 27 26 25 24 21 19 17 16 17 19 19 18 16 13 11 9 7 7
33 32 33 32 32 32 31 31 30 29 29 29 30 31 33 34 34 33 36 38 38 36 35 36 36 36 35 34 32 29 28 32 36 38 40 40 39 39 39 39 40 41 40 42 42 37 29 24 24 24 25 25 25 24 23 23 23 23 22 24 26 28 28 27 26 26 25 24 23 22 20 19 18 18 18 20 22 22 20 17 14 9 6 6 7
27 30 31 30 30 31 30 29 30 29 29 29 29 30 33 35 35 34 35 38 41 41 39 38 38 38 37 37 38 38 37 37 35 34 34 35 35 35 34 34 36 36 36 38 38 34 29 26 26 26 26 25 23 23 23 22 22 22 22 21 22 24 25 26 26 26 25 24 23 22 21 21 21 21 22 23 22 20 18 16 14 8 5 7 8
12 19 25 27 27 28 27 26 28 29 29 29 28 28 29 32 34 35 36 38 40 41 40 38 36 36 36 36 37 38 37 34 31 29 29 29 30 32 32 33 32 32 33 35 34 31 29 28 28 28 27 24 23 23 22 21 20 20 20 20 21 22 24 26 27 26 25 24 23 23 23 23 22 23 23 19 17 18 16 13 10 7 7 9 10
3 8 14 20 25 26 23 20 19 22 26 28 28 27 26 27 29 31 32 35 38 39 38 36 34 33 34 33 32 32 32 31 30 30 29 28 28 29 30 30 29 30 32 32 30 30 31 29 28 27 27 26 26 25 23 21 20 19 19 20 21 23 25 28 28 26 24 24 24 24 24 22 22 22 19 14 13 16 15 10 7 7 9 11 11
4 5 9 17 24 27 28 25 20 18 20 24 27 28 27 26 24 23 22 24 30 33 34 33 31 30 31 31 30 29 30 31 31 32 31 31 29 28 27 28 29 31 31 30 27 27 29 29 27 26 26 26 26 25 23 21 20 20 19 21 23 25 26 27 26 25 24 24 23 22 21 19 19 19 16 13 14 17 16 14 11 10 11 12 11
9 7 4 8 12 17 23 28 27 24 22 23 23 25 29 29 25 21 19 18 21 24 25 26 27 27 28 29 28 27 27 29 31 31 30 29 28 27 28 29 29 28 28 28 28 27 26 26 26 25 24 23 23 22 22 22 21 21 22 24 25 25 25 24 25 24 21 20 20 19 17 16 16 16 16 17 19 18 18 17 15 12 12 13 13
10 13 13 9 7 6 8 15 19 20 22 22 20 18 23 28 26 25 24 22 19 17 18 20 22 22 23 24 24 23 23 24 26 26 25 24 25 27 27 26 24 24 25 26 26 26 24 23 24 23 22 21 20 20 21 22 22 23 24 27 27 24 20 20 22 21 19 18 19 17 15 16 17 17 18 21 20 15 14 15 13 12 14 15 12
14 17 17 13 8 7 4 4 6 7 10 15 16 15 19 24 27 27 26 25 22 19 19 20 19 18 19 19 19 19 18 18 18 18 18 19 22 25 26 25 24 25 26 26 25 24 22 21 20 20 19 19 19 19 20 22 23 25 25 25 23 20 19 19 19 19 17 17 18 18 18 20 21 20 19 19 16 11 10 11 10 10 13 14 10
15 17 15 8 3 1 1 1 2 1 3 6 7 7 13 15 14 16 17 18 20 21 21 23 22 19 17 16 15 16 16 15 15 15 14 16 19 20 21 22 23 23 24 25 25 22 20 19 19 18 18 17 18 20 21 22 24 25 23 18 16 18 19 18 18 19 19 19 21 21 21 21 21 21 20 18 14 10 9 10 11 12 14 14 11
17 18 15 8 7 7 8 8 9 10 9 5 6 11 13 13 14 17 14 12 15 15 13 14 15 15 15 14 14 15 15 14 14 14 13 16 19 17 12 12 15 17 19 22 22 21 21 20 20 19 18 17 16 17 18 19 20 19 16 13 13 16 18 18 18 19 20 21 22 21 21 21 20 18 16 14 13 12 10 10 13 18 19 17 12
21 24 21 16 12 11 12 14 16 17 18 15 13 16 20 20 20 18 15 14 17 18 13 9 9 10 12 13 13 13 13 12 12 12 12 14 16 14 9 7 8 9 11 14 18 19 19 18 17 15 14 14 14 13 12 13 14 15 15 15 16 19 20 19 19 20 21 21 21 21 20 19 17 15 12 10 12 13 13 13 16 18 19 16 13
23 24 26 24 20 16 18 21 20 20 22 21 18 17 16 16 19 22 18 14 16 19 17 16 16 13 12 12 13 14 14 13 11 9 9 9 9 8 7 6 7 7 8 9 11 14 13 11 9 8 8 9 10 10 10 11 13 14 15 15 17 19 19 18 19 20 18 18 20 20 18 16 16 15 12 10 12 14 16 17 17 17 16 15 14
25 25 26 27 24 22 24 26 25 24 26 26 25 23 18 12 14 21 22 20 20 22 22 22 20 16 14 14 17 20 22 22 20 18 17 16 15 14 14 14 14 14 14 14 14 15 14 13 12 12 11 11 11 12 12 12 12 12 12 14 16 18 18 19 19 18 16 16 17 17 15 15 16 16 14 12 11 13 15 17 18 16 12 10 11
27 27 27 26 25 24 24 25 25 28 31 29 27 26 24 18 17 23 25 23 22 24 25 25 25 23 21 21 23 26 28 28 27 26 26 25 24 24 24 23 23 22 22 22 21 21 20 19 18 17 16 16 16 16 16 14 13 13 15 17 18 19 20 21 20 18 17 16 14 13 13 15 16 16 15 13 11 11 12 15 15 13 11 10 11
25 26 27 27 27 27 26 26 25 27 29 28 25 24 24 21 21 25 27 25 24 25 25 25 26 28 28 28 29 31 32 31 31 30 29 28 28 28 28 27 27 27 26 25 24 23 23 22 21 20 19 19 18 18 18 18 18 19 20 21 22 22 21 18 17 16 15 14 12 12 13 15 15 14 13 13 12 11 12 12 11 9 8 8 10
23 24 25 26 28 28 28 28 27 26 27 28 26 23 22 24 26 30 31 29 28 29 28 25 25 27 28 29 30 31 31 31 31 30 30 30 30 30 29 28 28 28 27 27 25 24 24 24 25 25 24 23 22 21 20 20 20 21 22 22 22 22 20 17 15 13 13 13 13 13 12 12 12 10 8 8 9 9 9 8 6 3 0 1 2
22 23 24 25 26 26 26 26 26 26 27 28 27 24 25 28 30 32 32 31 30 30 29 27 27 27 27 28 30 31 30 30 30 30 30 31 31 31 31 31 30 30 29 29 28 28 28 28 28 28 28 27 26 25 24 23 22 22 22 22 22 21 18 16 14 13 12 12 12 12 9 8 8 6 5 4 4 4 4 4 4 3 4 4 3
22 23 23 24 25 24 23 23 24 25 27 27 26 25 26 29 32 33 33 33 32 30 28 29 30 31 31 32 34 35 35 34 34 34 34 34 34 34 34 34 34 34 33 32 32 32 32 31 31 31 31 29 28 27 26 25 23 23 22 21 22 21 19 17 15 14 14 14 14 13 13 12 11 11 11 11 12 11 11 11 10 8 7 6 6
22 23 24 24 25 24 23 23 23 23 23 25 25 25 25 28 31 33 34 36 35 34 32 32 35 37 37 36 36 36 35 35 35 36 37 37 37 36 36 36 36 36 36 35 35 35 35 34 33 33 32 30 29 28 27 25 24 23 22 21 21 21 19 18 17 16 15 14 13 13 13 12 12 12 11 11 12 12 12 11 11 10 9 8 8
22 23 24 25 25 24 23 24 25 24 23 24 25 26 26 27 30 32 33 34 34 34 34 34 36 38 38 38 36 34 33 33 34 35 35 35 34 34 34 35 36 36 36 36 35 35 35 34 33 33 32 31 30 29 28 26 25 23 22 21 20 18 15 14 13 13 12 11 11 11 10 10 11 11 10 9 9 9 9 9 9 8 8 8 8
22 23 24 25 25 24 23 23 24 24 24 25 26 26 26 27 28 29 30 31 31 31 31 32 34 35 36 36 35 34 34 34 34 34 33 33 33 33 33 34 35 35 35 35 35 34 33 33 32 32 31 30 30 29 27 26 25 24 23 21 19 17 14 12 11 11 10 10 9 9 8 8 9 9 9 8 8 7 7 7 7 7 8 8 9
22 23 23 25 25 25 25 25 24 23 23 24 25 25 25 27 28 28 29 30 29 28 28 28 29 30 30 30 30 31 31 32 33 32 31 31 32 33 35 35 36 36 35 35 34 33 32 31 30 30 30 29 29 28 27 26 25 24 22 20 18 16 15 14 13 12 12 11 12 11 10 9 10 10 10 9 8 7 7 8 8 7 8 8 9
22 23 23 24 25 25 26 26 26 25 25 25 24 24 25 26 27 28 29 29 28 27 27 27 27 27 27 27 28 29 29 29 30 30 30 30 31 34 36 37 38 37 37 35 34 33 32 31 29 29 29 28 28 27 26 25 24 22 21 19 18 17 16 15 15 14 13 13 14 13 13 12 12 12 12 11 10 10 10 10 10 10 10 10 10
Wind_Direction
193 196 199 203 205 205 205 204 204 204 204 204 205 206 207 208 208 209 208 208 208 209 210 210 209 209 210 210 211 213 215 214 215 217 217 215 216 216 215 217 223 223 222 222 222 221 223 224 226 230 232 236 239 241 242 243 246 253 251 238 236 241 241 236 237 260 278 287 293 297 303 306 306 305 300 297 297 295 292 292 292 291 291 293 294
193 195 197 201 205 207 206 205 204 204 204 205 206 207 207 208 209 208 208 208 208 207 209 210 210 208 208 209 211 213 215 215 215 216 217 217 217 216 214 215 221 225 225 225 222 218 221 228 230 229 231 237 242 243 243 240 242 252 251 242 240 241 239 241 243 250 268 282 290 294 298 301 299 300 301 299 300 300 296 294 294 294 294 294 295
194 195 196 200 204 207 207 206 204 204 203 204 206 207 208 209 209 209 208 209 209 208 209 210 211 208 207 208 209 212 215 216 215 216 218 219 218 218 216 214 218 224 226 227 226 220 219 225 230 229 229 235 240 241 242 241 241 249 253 248 244 245 244 244 245 246 259 275 284 287 291 293 292 296 300 300 301 301 298 296 295 293 294 295 295
195 196 196 199 202 205 206 206 204 204 204 205 206 207 208 209 209 210 209 209 209 210 210 210 211 208 206 207 208 210 213 216 216 217 219 220 220 220 218 216 216 222 226 227 228 226 222 222 225 228 230 233 237 239 241 241 241 244 252 254 250 251 250 245 246 250 256 267 276 283 287 291 292 295 299 301 303 303 299 297 294 292 294 295 294
195 197 197 198 201 203 206 206 205 204 204 205 206 207 208 208 209 210 209 208 208 209 209 209 209 208 206 207 208 209 212 215 216 217 218 220 221 221 221 219 218 220 224 226 228 229 228 227 227 228 231 233 234 237 239 240 242 243 247 253 256 258 257 251 249 251 254 261 272 280 285 287 290 293 297 299 302 302 299 295 292 293 294 295 294
195 197 197 197 199 202 205 205 206 206 205 206 207 207 207 208 208 209 209 208 208 208 209 209 209 208 208 207 208 209 211 213 216 217 217 218 220 221 222 222 221 221 223 226 227 229 231 232 233 232 232 234 235 237 238 239 241 243 245 249 252 255 258 257 256 256 257 262 270 277 281 283 285 289 294 297 298 298 297 295 294 292 291 292 294
197 198 197 196 198 201 204 206 206 206 206 206 206 206 207 207 207 208 208 207 207 207 208 208 209 209 209 209 210 211 211 212 215 216 216 216 218 220 221 221 221 221 224 227 228 230 231 233 235 236 235 236 238 238 240 240 240 243 245 246 248 250 253 256 259 260 261 264 269 273 277 281 283 286 291 296 294 291 290 287 287 290 292 292 293
198 199 198 198 199 201 204 205 206 206 206 206 206 206 206 206 207 208 208 207 207 207 208 208 208 209 210 211 211 211 212 213 214 216 215 215 216 218 220 221 221 221 223 227 229 230 232 233 234 235 237 239 241 241 241 242 242 243 244 246 247 249 251 254 256 258 260 263 267 271 276 280 280 282 287 290 288 288 290 285 282 287 294 295 297
199 201 201 201 201 202 203 204 205 206 205 205 205 205 206 206 207 207 207 207 207 208 208 208 208 208 210 211 212 212 212 213 214 215 215 215 215 217 219 220 221 222 223 225 228 230 232 233 235 237 238 239 242 243 244 244 244 244 244 245 246 247 250 253 254 256 256 258 262 267 271 274 276 278 282 284 284 288 294 291 285 289 301 306 308
200 201 204 205 202 201 202 203 205 205 205 205 205 205 205 205 205 206 206 207 207 207 208 207 207 207 208 210 211 211 213 214 215 216 217 217 215 216 218 219 220 222 223 223 225 227 230 232 235 237 239 240 241 242 244 244 243 243 244 245 246 246 248 250 251 253 253 253 258 262 265 269 273 275 276 281 286 288 289 290 293 304 315 315 313
204 205 207 206 202 200 201 203 204 205 205 205 205 205 205 204 204 205 205 206 206 206 207 206 206 207 207 209 210 211 213 215 216 217 218 219 217 215 217 220 220 221 222 224 225 225 227 230 233 235 237 239 241 242 243 243 243 243 244 244 244 245 246 247 250 250 249 251 255 259 259 264 272 275 276 281 283 279 279 290 302 311 317 316 311
207 208 211 208 202 199 200 202 203 205 206 206 205 205 205 204 204 204 204 204 205 205 207 207 205 205 206 208 210 211 214 216 217 218 219 220 220 219 218 220 222 222 222 224 226 227 227 227 230 233 235 237 240 243 245 245 245 245 246 245 244 245 246 248 251 251 250 250 254 257 258 262 270 274 274 274 273 274 281 288 295 303 306 302 294
230 218 213 209 204 201 200 201 203 206 206 206 206 205 205 205 204 204 204 203 203 204 206 207 206 205 205 207 209 211 214 216 217 219 221 222 222 222 220 221 222 223 224 225 226 228 228 228 228 231 235 237 240 244 246 248 248 247 247 247 246 246 246 248 252 254 255 255 256 260 263 264 268 272 273 272 272 277 282 285 291 298 295 287 283
262 258 237 216 205 201 201 202 203 206 206 206 206 205 206 207 206 205 204 203 202 203 205 207 207 206 205 206 208 210 214 216 217 219 222 224 224 223 222 222 223 225 227 228 228 228 230 230 230 231 234 236 239 243 245 247 248 247 247 247 247 247 247 248 250 253 256 258 259 263 268 270 271 275 280 278 274 275 278 283 291 296 289 283 283
223 244 258 237 213 201 201 203 204 205 206 205 205 205 206 208 207 206 205 203 202 203 203 205 207 207 206 206 207 209 213 216 218 219 222 225 226 225 223 223 224 226 230 231 231 231 231 233 234 236 237 237 238 241 244 247 249 249 248 248 249 250 250 250 252 254 256 259 262 266 271 274 275 279 283 282 278 278 280 283 286 282 279 282 287
208 211 220 227 218 204 200 202 202 204 205 204 205 206 206 208 208 207 206 205 204 204 204 204 206 207 206 205 206 209 212 215 217 219 222 225 226 225 224 223 224 227 231 233 234 234 235 236 238 240 241 242 242 242 244 247 251 252 251 251 252 253 254 255 256 257 260 263 267 269 271 273 274 276 277 277 276 278 278 277 272 268 274 285 290
211 213 211 214 213 205 200 200 201 202 203 203 205 206 206 207 208 207 206 205 204 204 204 205 206 207 207 206 206 208 210 214 217 218 221 223 224 224 222 222 223 227 230 233 234 236 239 240 241 242 243 244 245 244 243 245 248 252 253 254 254 255 258 260 260 260 263 266 269 270 269 270 270 270 269 269 269 271 269 264 264 269 276 282 284
213 218 216 214 213 205 200 199 199 200 202 203 205 205 205 206 207 207 206 206 205 205 204 205 206 208 209 209 208 208 209 212 215 218 220 221 221 222 221 221 223 227 230 232 232 233 235 237 239 241 243 245 246 245 243 241 242 246 248 251 253 254 258 261 262 262 264 265 266 267 268 271 269 266 265 265 265 265 262 260 267 272 269 267 272
213 216 216 216 215 208 201 199 199 199 201 204 204 204 204 205 206 207 208 207 207 206 204 205 206 207 210 212 212 212 211 212 215 217 219 220 220 220 220 219 221 226 230 232 233 232 232 233 234 235 240 245 246 244 242 239 238 241 244 245 247 251 256 259 260 260 261 260 263 268 271 272 270 266 265 264 264 266 264 265 269 267 261 262 267
213 214 214 216 214 208 201 199 199 199 201 203 204 204 204 204 204 206 208 208 208 207 205 205 206 208 209 212 214 216 216 216 216 217 219 220 220 220 218 216 219 224 228 231 233 235 236 237 237 236 237 240 242 242 242 239 238 240 242 241 243 249 254 257 257 259 260 261 265 269 271 271 268 265 264 262 262 262 260 259 261 260 261 262 258
214 212 212 213 211 206 201 200 199 200 201 202 202 203 203 203 203 205 206 208 208 208 206 204 206 208 210 211 213 216 219 220 221 221 221 222 222 220 216 216 219 223 226 228 231 234 237 239 241 241 240 240 241 242 243 242 242 242 242 243 246 251 255 257 258 259 260 260 261 260 260 263 263 260 257 255 255 253 250 250 256 263 265 263 256
214 208 207 208 206 203 201 200 199 199 200 200 200 202 203 203 203 204 205 207 208 208 207 205 204 207 209 211 214 216 219 221 222 224 225 225 225 222 219 220 223 224 224 226 229 232 237 240 243 246 247 246 247 248 248 248 247 246 247 249 252 254 255 256 258 257 254 252 252 251 253 259 265 263 254 246 247 248 248 252 263 268 265 261 256
213 207 206 204 203 201 200 199 197 197 198 198 198 201 202 203 204 203 204 205 207 208 208 205 204 205 207 210 213 216 218 220 222 224 225 227 228 227 224 225 226 225 224 226 229 234 237 240 244 248 250 251 253 253 253 253 252 251 252 253 254 254 253 253 253 251 249 249 251 254 256 257 261 266 257 245 245 250 255 264 272 266 249 245 251
214 208 206 202 201 200 198 197 196 196 196 196 197 199 200 202 203 204 204 204 205 207 208 206 203 203 205 207 210 213 216 219 220 223 225 226 227 229 228 228 228 227 226 228 232 235 238 240 243 246 249 251 254 256 257 256 254 253 253 254 254 253 249 247 246 246 247 249 251 255 258 258 259 262 260 259 262 261 262 265 263 245 234 245 267
218 212 206 201 199 197 195 194 194 195 195 194 195 198 199 200 202 204 204 204 205 206 207 207 206 204 203 204 206 210 213 215 218 221 224 225 227 228 229 229 229 229 229 230 233 235 238 241 244 245 248 251 254 256 257 256 255 254 253 253 252 251 247 244 244 244 246 249 253 257 261 262 263 264 265 268 268 262 254 249 242 238 244 256 266
218 213 206 202 198 194 192 191 192 193 194 195 196 198 199 200 203 205 204 204 206 207 207 207 208 208 207 204 204 207 210 211 214 218 221 223 226 228 229 229 229 230 230 231 233 235 237 241 243 243 245 247 249 251 252 253 253 252 250 249 248 248 247 244 243 243 245 250 254 258 262 265 267 268 268 265 259 250 242 238 238 240 244 246 240
214 208 201 197 194 189 188 188 188 190 192 194 197 199 200 202 204 205 205 205 206 207 207 208 208 209 209 207 205 204 206 208 211 215 218 221 224 226 228 228 228 228 228 229 231 232 234 236 237 237 238 239 241 245 248 250 251 250 248 246 245 246 246 245 244 245 247 251 255 259 263 266 267 266 262 255 246 237 231 230 230 227 226 229 220
211 203 196 191 188 186 186 185 185 188 191 194 197 199 201 205 208 208 207 206 205 205 205 206 208 208 208 208 206 204 205 206 208 212 217 220 222 223 224 226 226 226 226 228 229 229 230 230 229 230 233 236 240 245 249 253 255 255 253 250 246 245 245 244 245 246 249 252 256 258 260 260 258 253 248 241 233 222 216 219 221 215 210 214 210
205 197 191 187 184 183 184 184 184 187 192 196 199 202 205 208 211 212 212 211 209 208 206 206 208 208 208 208 207 206 207 209 210 214 217 219 220 221 222 224 226 226 229 231 229 225 224 225 226 230 234 237 242 246 249 253 257 258 258 254 250 246 242 241 242 244 248 250 250 250 250 247 241 235 228 223 219 213 209 211 211 205 206 219 218
199 190 184 182 182 181 180 182 185 188 192 196 200 204 208 210 212 214 215 215 214 212 211 210 210 208 208 210 210 210 213 215 214 216 218 219 221 224 226 228 228 229 232 233 227 220 219 222 225 229 232 234 237 241 244 247 250 254 255 254 250 245 242 241 242 244 246 246 244 244 242 234 226 220 218 216 210 200 196 204 211 216 231 226 217
196 187 180 177 178 178 180 183 187 190 193 197 201 203 204 208 212 215 216 216 216 215 215 214 214 211 210 212 214 214 216 218 217 216 219 221 224 227 229 230 230 230 232 231 222 215 217 222 226 229 233 234 236 238 240 241 243 246 249 249 248 245 242 241 242 243 243 243 241 238 234 228 219 212 208 202 190 181 184 198 213 228 232 215 206
159 161 165 166 167 171 175 179 186 193 196 197 201 203 201 203 210 215 217 215 213 214 215 214 215 215 214 214 215 216 217 219 221 222 223 224 226 227 228 228 227 228 229 226 219 216 217 221 225 229 231 234 238 239 239 238 239 241 242 241 242 242 242 243 243 240 238 238 237 233 229 223 212 200 189 177 173 180 187 190 199 221 221 207 204
256 176 162 165 168 171 175 179 184 197 206 204 201 200 200 202 206 206 207 207 205 206 209 210 210 212 213 214 216 218 219 221 223 225 225 226 227 228 226 225 225 224 222 217 214 216 219 220 224 228 230 233 237 239 239 240 240 242 243 243 242 242 242 243 239 234 232 232 230 225 219 211 199 187 182 185 192 193 192 192 203 219 219 213 217
304 289 242 187 180 180 183 186 189 194 205 214 213 205 202 205 205 194 182 180 185 188 192 198 201 204 207 209 212 216 219 220 220 222 223 223 224 225 222 219 218 217 217 216 216 217 219 220 224 228 231 234 237 239 241 241 242 243 245 247 247 245 242 235 227 223 222 218 212 209 207 199 190 182 177 182 189 191 193 199 205 209 210 221 233
359 340 335 327 304 265 216 203 200 196 200 212 225 224 211 204 197 189 183 177 170 165 167 176 186 193 199 202 204 208 212 213 214 216 217 218 218 217 213 208 204 205 209 213 216 217 218 221 226 230 233 237 240 242 241 242 243 243 244 247 246 241 231 219 210 209 209 203 195 194 189 180 175 171 168 170 175 181 191 201 209 211 210 218 223
37 18 4 352 326 301 285 242 221 213 214 219 227 244 243 223 202 190 185 178 169 162 161 164 169 176 183 188 191 193 195 197 199 203 207 210 211 207 201 196 196 199 203 207 211 214 216 221 227 233 236 239 242 244 245 245 243 243 245 247 241 226 212 202 195 193 194 188 178 170 163 159 160 163 166 169 174 183 197 205 210 213 212 211 207
46 42 33 27 30 40 59 120 140 78 311 265 244 274 286 262 212 175 168 169 167 167 168 168 167 168 169 169 170 174 176 178 181 186 191 194 194 194 194 195 196 198 201 204 206 208 212 219 226 232 237 241 244 246 246 247 246 244 244 242 230 212 201 193 186 183 179 169 161 157 156 156 162 168 171 170 174 189 215 222 213 205 204 207 211
49 55 56 74 105 103 89 77 68 65 66 74 94 85 65 57 80 99 113 131 139 142 152 163 165 163 160 157 159 162 163 164 166 167 171 176 176 171 170 183 195 203 209 211 211 211 215 222 229 233 236 241 246 246 244 243 241 234 224 209 194 186 178 171 170 171 167 160 155 154 156 160 164 168 172 177 186 200 218 221 205 194 191 195 207
45 52 57 72 93 98 90 78 69 71 80 83 90 102 106 107 114 127 141 147 140 138 139 134 128 134 144 150 156 160 157 153 153 153 158 169 172 166 153 153 171 190 204 212 217 220 223 227 231 232 232 232 232 229 226 220 212 201 193 186 176 167 163 163 164 161 156 154 154 155 162 170 171 168 175 197 210 212 215 211 200 194 194 199 208
36 48 56 67 82 92 91 87 85 83 81 77 79 95 114 135 149 150 148 140 129 125 122 114 109 113 125 132 137 139 134 126 125 131 137 144 150 150 141 127 122 124 136 160 186 199 203 204 203 198 194 196 195 189 184 183 182 180 183 185 174 161 159 166 168 162 157 161 166 169 174 177 173 170 183 214 230 229 229 224 213 206 208 211 217
33 42 51 60 73 85 89 89 90 89 84 82 87 93 97 109 128 128 124 118 110 103 99 97 98 102 111 120 126 124 115 106 102 102 102 102 101 98 93 92 93 96 101 108 121 136 142 138 131 127 126 131 141 148 154 163 173 175 172 168 163 158 158 161 163 162 164 169 173 174 174 173 175 185 204 225 233 231 229 224 217 213 212 210 215
37 41 44 49 57 66 73 80 87 91 89 88 90 95 100 107 112 112 110 108 104 99 93 88 89 94 101 111 117 114 106 99 96 93 90 88 87 84 82 82 84 86 89 92 98 108 117 118 114 112 112 114 121 129 133 135 141 148 150 152 155 157 157 155 155 156 160 164 166 168 172 179 189 202 213 219 219 216 211 207 207 211 214 215 223
44 47 47 48 51 54 57 61 67 76 83 86 87 94 105 112 111 104 100 96 93 92 90 86 85 87 90 95 102 102 97 93 92 91 88 86 84 82 81 83 86 89 92 95 99 105 111 112 109 107 107 109 114 121 123 123 126 129 133 137 141 141 141 143 147 153 160 165 166 167 176 188 197 203 210 213 214 213 206 200 201 208 219 232 244
46 51 51 52 54 56 59 61 61 63 69 76 81 87 96 100 96 91 89 88 87 87 86 83 82 82 82 85 91 92 90 90 91 90 88 86 85 83 84 87 90 92 94 96 98 102 105 104 102 101 101 101 103 109 113 118 121 121 120 121 125 126 127 131 137 146 157 168 172 176 186 197 198 200 210 219 217 215 208 199 195 191 126 350 289
44 51 53 54 56 58 61 66 70 71 72 74 76 77 82 86 87 86 86 85 84 83 83 82 82 81 79 81 84 87 88 90 91 91 90 88 86 85 87 89 90 92 92 94 95 97 98 98 99 98 97 97 99 102 105 108 111 112 112 112 113 112 113 118 123 128 135 145 152 156 157 151 139 127 108 100 111 115 107 104 103 85 65 51 33
42 51 56 57 59 59 60 64 71 75 78 79 79 76 76 80 82 85 89 89 86 84 83 85 88 88 85 85 86 88 88 90 91 92 94 93 91 90 90 91 92 92 91 92 94 95 94 94 96 95 93 94 96 98 100 101 103 103 104 105 104 101 100 102 108 113 119 124 125 123 119 114 109 104 97 95 97 96 94 91 89 86 82 72 56
43 51 57 59 60 60 60 63 67 71 74 78 80 77 76 78 81 84 88 90 90 90 89 89 91 93 92 90 90 89 88 89 90 92 93 95 94 94 94 94 93 92 91 91 92 92 91 91 92 92 91 91 92 92 93 94 95 95 95 96 96 96 96 98 100 102 106 111 114 114 112 109 107 107 107 106 105 105 103 99 93 85 78 70 59
48 54 59 61 61 60 60 62 64 65 66 71 75 74 74 76 78 81 83 85 87 90 91 92 93 94 94 93 93 92 91 91 90 90 92 93 93 94 95 96 95 93 92 90 90 90 90 89 89 89 89 88 87 87 87 86 86 86 85 84 85 86 88 93 95 94 93 96 100 103 103 101 99 101 102 103 103 100 95 89 84 74 65 59 51
49 54 59 61 61 61 61 62 65 66 67 69 72 74 75 75 76 77 80 81 83 86 89 92 93 95 96 96 96 95 94 93 91 89 90 91 92 95 98 99 99 98 96 94 91 91 91 90 89 88 87 85 84 83 83 82 81 79 78 77 77 78 80 83 85 85 83 81 80 81 83 85 85 85 84 84 84 82 76 70 63 55 49 46 40
50 54 58 60 61 62 63 64 65 68 70 71 72 74 75 76 76 76 77 79 80 83 86 89 91 93 95 95 95 94 93 92 90 89 88 89 91 94 96 98 98 97 96 95 93 92 90 89 88 87 85 83 81 80 79 77 76 75 75 75 76 76 76 76 78 77 76 74 72 72 72 72 73 73 72 69 65 62 59 53 44 39 39 38 35
52 55 58 61 63 64 65 64 64 65 68 71 73 74 76 78 80 81 81 81 80 82 85 88 90 92 93 94 95 95 93 91 90 90 90 91 92 93 94 95 96 96 94 93 93 91 89 87 86 85 83 81 79 77 76 74 74 74 74 73 73 72 70 70 70 70 70 69 68 68 69 69 69 69 69 68 65 62 58 53 46 41 37 34 31